[[{"header":{"parameterUnit":"m.s-1","parameterCategory":1,"la1":30.2991,"la2":30.254,"lo1":-89.0895,"lo2":-89.0444,"dy":0.0017,"dx":0.0017,"nx":28,"ny":28,"refTime":"2024-02-06T03:00:00:Z","depth":0,"parameterNumber":2,"parameterNumberName":"U-component_of_WINDS"},"data":[0,0,0,0,0,0,0,0,0,0,0,0,0,0,0,0,0,0,0,0,0,0,0,0,0,0,0,0,0,0,0,0,0,0,0,0,0,0,0,0,0,0,0,0,0,0,0,0,0,0,0,0,0,0,0,0,0,0,1.1401,1.1402,0,1.1468,1.1469,1.147,1.1436,1.1435,1.1433,1.1431,1.1504,1.1507,1.1511,0,0,0,0,0,0,0,0,0,0,0,0,0,1.125,1.1253,1.1401,1.1402,1.1403,1.1468,1.1469,1.147,1.1437,1.1435,1.1432,1.143,1.1503,1.1507,1.1511,0,0,0,0,0,0,0,0,0,0,0,0,0,1.1316,1.1254,1.1401,1.1394,1.1394,1.1468,1.1469,1.147,1.1437,1.1435,1.1432,1.1429,1.1501,1.1507,1.1512,1.1598,0,0,1.1528,1.1531,0,0,0,0,0,0,0,0,1.1312,1.1322,1.1394,1.1395,1.1395,1.1441,1.1442,1.1513,1.1438,1.1421,1.1431,1.1428,1.1485,1.1492,1.151,1.1601,1.1604,1.1529,1.1532,1.1534,1.1536,0,0,0,0,0,0,0,1.1308,1.1319,1.1428,1.1395,1.1396,1.1389,1.1396,1.1456,1.1467,1.1422,1.142,1.1428,1.1485,1.1505,1.1512,1.1606,1.1529,1.1533,1.1537,1.1539,1.1775,1.1778,0,0,0,0,0,0,1.1303,1.1315,1.1426,1.143,1.1346,1.1394,1.1402,1.1429,1.1467,1.147,1.143,1.1426,1.1498,1.1506,1.1514,1.1621,1.1534,1.1539,1.1542,1.1772,1.1776,1.1779,0,0,0,0,0,0,1.13,1.1313,1.1423,1.1372,1.1385,1.14,1.1431,1.1432,1.1452,1.1473,1.1475,1.1449,1.1496,1.1507,1.1578,1.1623,1.1542,1.1547,1.1769,1.1774,1.1778,1.1834,0,0,0,0,0,0,1.1296,1.1312,1.1343,1.1373,1.1388,1.1484,1.1434,1.1435,1.1461,1.1456,1.149,1.1494,1.1495,1.157,1.1584,1.1629,1.1551,1.1765,1.1771,1.1776,1.1828,1.184,1.1849,0,0,0,0,0,1.129,1.1356,1.1345,1.1359,1.1427,1.1487,1.1496,1.1494,1.1465,1.1498,1.1512,1.1493,1.1616,1.1578,1.1593,1.164,1.1762,1.1769,1.1776,1.1823,1.1837,1.1849,0,0,0,0,0,0,1.1332,1.136,1.1348,1.1425,1.1454,1.1481,1.1522,1.1509,1.1548,1.1542,1.154,1.1548,1.1623,1.1638,1.1596,1.1728,1.1685,1.1695,1.1715,1.1729,1.174,1.1736,1.1555,0,0,0,0,0,1.135,1.1394,1.1417,1.1483,1.1498,1.1508,1.1533,1.153,1.156,1.1573,1.1591,1.1623,1.1669,1.1699,1.1743,1.1829,1.1839,1.187,1.1881,1.1889,1.1899,1.195,1.1966,1.1802,1.1802,1.1802,0,0,1.1388,1.1409,1.1437,1.1492,1.1514,1.1562,1.1518,1.157,1.1607,1.1581,1.165,1.1665,1.1701,1.1781,1.1818,1.1797,1.1946,1.1898,1.1905,1.191,1.1959,1.1975,1.1988,1.1807,1.1806,1.1805,0,0,1.1483,1.1502,1.1561,1.1584,1.1618,1.1624,1.1638,1.1668,1.1678,1.1747,1.173,1.1774,1.1852,1.1879,1.1903,1.2012,1.1998,1.2026,1.2084,1.2134,1.2147,1.2158,1.2201,1.2216,1.2035,1.2035,1.2035,0,1.1527,1.1597,1.1593,1.1647,1.1674,1.1652,1.1714,1.1737,1.1783,1.1803,1.1778,1.1879,1.1901,1.199,1.2016,1.2035,1.2054,1.2023,1.2145,1.2156,1.2167,1.2208,1.2223,1.2039,1.2038,1.2038,1.2038,0,1.1651,1.1701,1.1745,1.1791,1.1822,1.1879,1.1886,1.1919,1.1913,1.1923,1.1997,1.2022,1.2072,1.2092,1.2087,1.2182,1.2168,1.2144,1.2101,1.2186,1.2225,1.224,1.2044,1.2042,1.2041,1.2041,0,0,1.1775,1.1819,1.1835,1.1858,1.1894,1.1934,1.1992,1.204,1.207,1.2103,1.2155,1.2223,1.2202,1.2229,1.2227,1.2271,1.2361,1.2242,1.2243,1.2267,1.2471,1.2492,1.2509,1.235,1.2353,1.2355,1.247,0,1.1875,1.1976,1.1975,1.2069,1.2117,1.2099,1.215,1.218,1.2191,1.2236,1.2248,1.2299,1.2265,1.2282,1.2324,1.2341,1.2402,1.2332,1.2402,1.2404,1.2396,1.2529,1.255,1.2656,1.2484,1.2487,1.2489,0,1.2005,1.2044,1.2143,1.2176,1.2196,1.2242,1.2289,1.233,1.2365,1.237,1.2402,1.2395,1.2457,1.241,1.2499,1.2451,1.248,1.2493,1.2497,1.2506,1.2454,1.2545,1.269,1.2707,1.2511,1.251,1.2508,0,1.209,1.2166,1.2237,1.2256,1.2295,1.2329,1.2347,1.2379,1.2409,1.245,1.2471,1.2518,1.2545,1.2584,1.2591,1.2555,1.2681,1.2634,1.2691,1.2691,1.272,1.2718,1.2875,1.2733,1.2732,1.2732,1.2732,0,1.2204,1.2266,1.2276,1.2319,1.239,1.2389,1.246,1.2476,1.2505,1.2554,1.2539,1.2586,1.259,1.2639,1.2644,1.2719,1.273,1.2739,1.2741,1.2742,1.2742,1.2763,1.2757,1.2736,1.2735,1.2735,1.2734,0,1.2311,1.2319,1.2396,1.2427,1.2437,1.2488,1.2516,1.256,1.257,1.2632,1.2647,1.2664,1.2721,1.2731,1.2797,1.2801,1.2892,1.2884,1.288,1.2881,1.2938,1.2934,1.3116,1.3142,1.298,1.2981,1.2983,0,1.2385,1.2433,1.247,1.2501,1.2521,1.2571,1.2603,1.2604,1.2638,1.2683,1.2722,1.2777,1.2822,1.2914,1.2934,1.2986,1.2982,1.3042,1.2989,1.2991,1.2987,1.2986,1.2993,1.3053,1.3055,1.3056,1.3057,0,1.2516,1.2519,1.2563,1.2611,1.2649,1.2687,1.2722,1.2749,1.2756,1.2795,1.2853,1.2888,1.2956,1.3013,1.3065,1.3087,1.3075,1.3073,1.309,1.3094,1.3092,1.3098,1.2912,1.307,1.3068,1.3067,1.3067,1.3066,1.2612,1.2655,1.2689,1.2741,1.2768,1.2802,1.2845,1.2862,1.291,1.2966,1.2964,1.3029,1.3066,1.3135,1.316,1.3212,1.3193,1.3216,1.3223,1.3229,1.3237,1.3081,1.3221,1.3221,1.322,1.322,1.322,0,1.2746,1.2767,1.2814,1.2865,1.2907,1.289,1.293,1.2967,1.3023,1.3058,1.3102,1.3171,1.3227,1.3252,1.3307,1.3344,1.3341,1.3359,1.3358,1.3365,1.3248,1.323,1.3362,1.3362,1.3362,1.3362,1.3362,1.3362,1.2821,1.2894,1.2901,1.299,1.301,1.3073,1.3098,1.3131,1.3159,1.3236,1.3282,1.3297,1.333,1.3388,1.3439,1.3445,1.3468,1.349,1.3494,1.3386,1.3372,1.3358,1.3342,1.3494,1.3494,1.3607,1.3608,1.3608]},{"header":{"parameterUnit":"m.s-1","parameterCategory":1,"la1":30.2991,"la2":30.254,"lo1":-89.0895,"lo2":-89.0444,"dy":0.0017,"dx":0.0017,"nx":28,"ny":28,"refTime":"2024-02-06T03:00:00:Z","depth":0,"parameterNumber":3,"parameterNumberName":"V-component_of_WINDS"},"data":[0,0,0,0,0,0,0,0,0,0,0,0,0,0,0,0,0,0,0,0,0,0,0,0,0,0,0,0,0,0,0,0,0,0,0,0,0,0,0,0,0,0,0,0,0,0,0,0,0,0,0,0,0,0,0,0,0,0,-2.7363,-2.7363,0,-2.7302,-2.7301,-2.7301,-2.7356,-2.7359,-2.7361,-2.7363,-2.7295,-2.7291,-2.7287,0,0,0,0,0,0,0,0,0,0,0,0,0,-2.7524,-2.7521,-2.7363,-2.7363,-2.7362,-2.7302,-2.7301,-2.73,-2.7356,-2.7359,-2.7361,-2.7364,-2.7296,-2.7291,-2.7287,0,0,0,0,0,0,0,0,0,0,0,0,0,-2.7458,-2.752,-2.7363,-2.7382,-2.7384,-2.7302,-2.7301,-2.73,-2.7355,-2.7359,-2.7362,-2.7365,-2.7298,-2.7292,-2.7286,-2.7181,0,0,-2.7268,-2.7266,0,0,0,0,0,0,0,0,-2.7461,-2.7452,-2.738,-2.7381,-2.7382,-2.734,-2.7333,-2.726,-2.7354,-2.7366,-2.7363,-2.7367,-2.7307,-2.73,-2.7281,-2.7178,-2.7175,-2.7268,-2.7264,-2.7261,-2.726,0,0,0,0,0,0,0,-2.7466,-2.7454,-2.7339,-2.7379,-2.738,-2.7393,-2.7387,-2.732,-2.7318,-2.7365,-2.7369,-2.7361,-2.7308,-2.7287,-2.728,-2.7174,-2.7268,-2.7262,-2.7259,-2.7257,-2.6983,-2.6979,0,0,0,0,0,0,-2.7469,-2.7458,-2.7341,-2.7337,-2.7431,-2.7387,-2.7381,-2.735,-2.7319,-2.7317,-2.7358,-2.7364,-2.7295,-2.7287,-2.7278,-2.7153,-2.7262,-2.7256,-2.7253,-2.6986,-2.6982,-2.6978,0,0,0,0,0,0,-2.7472,-2.7458,-2.7343,-2.7399,-2.7385,-2.7381,-2.7346,-2.7347,-2.7326,-2.7314,-2.7313,-2.7337,-2.7298,-2.7286,-2.7205,-2.7151,-2.7253,-2.7248,-2.6991,-2.6985,-2.698,-2.6903,0,0,0,0,0,0,-2.7477,-2.7459,-2.742,-2.7397,-2.7382,-2.7273,-2.7343,-2.7344,-2.7317,-2.7323,-2.7294,-2.7292,-2.7299,-2.7214,-2.72,-2.7145,-2.7243,-2.6995,-2.6988,-2.6981,-2.691,-2.6895,-2.6882,0,0,0,0,0,-2.7482,-2.7399,-2.7418,-2.7403,-2.7333,-2.727,-2.7261,-2.7272,-2.7312,-2.7272,-2.7264,-2.7293,-2.716,-2.7205,-2.7189,-2.7132,-2.6999,-2.699,-2.6982,-2.6916,-2.6898,-2.6883,0,0,0,0,0,0,-2.7413,-2.7397,-2.7417,-2.7325,-2.7298,-2.7279,-2.7229,-2.7252,-2.7213,-2.7221,-2.7235,-2.7228,-2.7143,-2.713,-2.718,-2.703,-2.7086,-2.7074,-2.7041,-2.7024,-2.701,-2.7014,-2.7238,0,0,0,0,0,-2.7388,-2.7339,-2.7327,-2.7246,-2.7233,-2.7233,-2.7206,-2.7217,-2.719,-2.7178,-2.7165,-2.7136,-2.7088,-2.7055,-2.701,-2.6909,-2.6903,-2.6862,-2.6848,-2.6837,-2.6826,-2.6771,-2.6753,-2.695,-2.695,-2.695,0,0,-2.7333,-2.7319,-2.7286,-2.7232,-2.7213,-2.7161,-2.7223,-2.7165,-2.7126,-2.7169,-2.7092,-2.7081,-2.705,-2.6958,-2.6917,-2.6945,-2.6771,-2.6826,-2.6818,-2.6812,-2.6761,-2.6742,-2.6725,-2.6944,-2.6945,-2.6946,0,0,-2.7208,-2.7192,-2.7124,-2.7104,-2.7076,-2.7077,-2.7061,-2.7038,-2.7033,-2.6957,-2.6988,-2.6942,-2.6858,-2.6835,-2.6812,-2.6679,-2.6704,-2.6664,-2.6591,-2.6538,-2.6522,-2.6509,-2.646,-2.6443,-2.6654,-2.6653,-2.6653,0,-2.7143,-2.7068,-2.7085,-2.7025,-2.7,-2.7039,-2.6969,-2.6949,-2.6906,-2.6887,-2.6919,-2.6816,-2.6798,-2.6702,-2.6669,-2.665,-2.6631,-2.6667,-2.6524,-2.651,-2.6497,-2.6451,-2.6433,-2.6649,-2.6649,-2.665,-2.665,0,-2.699,-2.6937,-2.6885,-2.6845,-2.6814,-2.6749,-2.6755,-2.6722,-2.6736,-2.6734,-2.6656,-2.6635,-2.6587,-2.6566,-2.6578,-2.6471,-2.6489,-2.6522,-2.6578,-2.6473,-2.6431,-2.6413,-2.6642,-2.6644,-2.6645,-2.6646,0,0,-2.6816,-2.6789,-2.6769,-2.6752,-2.6724,-2.6683,-2.662,-2.6575,-2.6545,-2.6515,-2.6461,-2.6391,-2.6422,-2.6396,-2.6407,-2.636,-2.6256,-2.6399,-2.6399,-2.6372,-2.6135,-2.6109,-2.6089,-2.6273,-2.627,-2.6267,-2.6138,0,-2.6689,-2.6581,-2.6596,-2.6492,-2.6443,-2.648,-2.6425,-2.6401,-2.6398,-2.6355,-2.635,-2.63,-2.6345,-2.633,-2.6286,-2.6278,-2.6208,-2.6288,-2.6222,-2.6219,-2.6227,-2.6066,-2.6039,-2.5917,-2.6121,-2.6118,-2.6116,0,-2.6526,-2.6492,-2.6383,-2.6364,-2.6344,-2.6295,-2.6255,-2.6214,-2.6187,-2.6188,-2.616,-2.6179,-2.6115,-2.6175,-2.6086,-2.6139,-2.6114,-2.6106,-2.6101,-2.6094,-2.616,-2.6053,-2.5878,-2.586,-2.609,-2.6092,-2.6094,0,-2.6409,-2.6336,-2.6262,-2.6246,-2.6222,-2.6186,-2.6174,-2.6152,-2.6124,-2.6089,-2.6071,-2.6028,-2.6004,-2.597,-2.5977,-2.602,-2.5885,-2.5946,-2.5883,-2.5882,-2.5851,-2.5853,-2.5668,-2.5837,-2.5837,-2.5838,-2.5838,0,-2.6264,-2.6196,-2.6209,-2.6163,-2.6088,-2.6105,-2.603,-2.6022,-2.6002,-2.5955,-2.5985,-2.5939,-2.5952,-2.5906,-2.5912,-2.5837,-2.5826,-2.5823,-2.5825,-2.582,-2.582,-2.5801,-2.5809,-2.5833,-2.5834,-2.5835,-2.5836,0,-2.6119,-2.6126,-2.6048,-2.6033,-2.6027,-2.5972,-2.5958,-2.5915,-2.5915,-2.5854,-2.5841,-2.584,-2.5788,-2.5793,-2.5734,-2.5737,-2.5644,-2.5657,-2.5653,-2.5655,-2.5592,-2.5598,-2.5388,-2.5361,-2.5549,-2.5547,-2.5546,0,-2.6026,-2.5975,-2.5955,-2.5926,-2.5912,-2.5866,-2.5838,-2.5854,-2.5823,-2.5791,-2.575,-2.5702,-2.5664,-2.558,-2.5572,-2.5528,-2.5539,-2.5468,-2.5532,-2.5528,-2.5536,-2.5538,-2.5533,-2.5455,-2.5453,-2.5451,-2.545,0,-2.5858,-2.5865,-2.5825,-2.5786,-2.5753,-2.5723,-2.5696,-2.567,-2.5683,-2.5647,-2.5596,-2.5567,-2.5508,-2.5459,-2.5417,-2.5403,-2.5427,-2.543,-2.5413,-2.5406,-2.5406,-2.5404,-2.5618,-2.5434,-2.5436,-2.5437,-2.5438,-2.5438,-2.5735,-2.5692,-2.5672,-2.5626,-2.5608,-2.5582,-2.5541,-2.5537,-2.5495,-2.545,-2.5461,-2.5403,-2.5379,-2.5325,-2.5308,-2.5261,-2.5287,-2.5262,-2.5255,-2.5249,-2.5241,-2.5415,-2.5254,-2.5254,-2.5255,-2.5255,-2.5255,0,-2.5568,-2.5558,-2.5517,-2.5479,-2.5443,-2.5473,-2.5444,-2.5412,-2.5361,-2.5337,-2.53,-2.5241,-2.5194,-2.5185,-2.5139,-2.5104,-2.5114,-2.5092,-2.5093,-2.509,-2.5222,-2.524,-2.5084,-2.5084,-2.5084,-2.5085,-2.5085,-2.5085,-2.5477,-2.5405,-2.5409,-2.5328,-2.5318,-2.5263,-2.5244,-2.522,-2.5202,-2.5135,-2.5097,-2.5092,-2.5074,-2.5028,-2.4986,-2.4985,-2.4966,-2.4938,-2.4941,-2.5064,-2.5081,-2.5097,-2.5114,-2.4935,-2.4934,-2.4813,-2.4812,-2.4811]}]]